Location: Asheville, NC
(35.6000°N, 82.5500°W)
Time: 01:51:47
(UTC-05:00)

ISS - Pass Details

Date: 12 February 2018
Orbit: 403 x 407 km, 51.6° (Epoch: 22 February)

Event Time Altitude Azimuth Distance (km) Brightness Sun altitude
Rises 20:21:36 0° 290° (WNW) 2,311 1.1 -27.4°
Reaches altitude 10° 20:24:38 10° 259° (W) 1,448 -0.1 -28.0°
Enters shadow 20:26:02 12° 233° (SW) 1,312 -0.7 -28.3°
